QPF
0.01 0.01 0.01 0.01 0.01 0.01 0.01 0.01 0.01 0.01 0.01 0.00 0.00 0.00 0.00 0.00 0.00 0.00 0.00 0.00 0.00 0.00 0.00 0.00 0.00 0.00 0.00 0.00 0.00 0.00 0.00 0.00 0.00 0.00 0.00 0.00 0.00 0.00 0.00 0.00 0.00 0.00
0.00 0.00 0.00 0.01 0.01 0.01 0.01 0.01 0.01 0.01 0.01 0.00 0.00 0.00 0.00 0.00 0.00 0.00 0.00 0.00 0.00 0.00 0.00 0.00 0.00 0.00 0.00 0.00 0.01 0.03 0.03 0.00 0.00 0.00 0.00 0.00 0.00 0.00 0.00 0.00 0.00 0.00
0.00 0.00 0.00 0.00 0.00 0.00 0.01 0.01 0.01 0.01 0.01 0.01 0.00 0.00 0.00 0.00 0.00 0.00 0.00 0.00 0.00 0.00 0.00 0.00 0.00 0.00 0.02 0.00 0.01 0.01 0.00 0.00 0.00 0.00 0.00 0.00 0.00 0.00 0.00 0.01 0.01 0.01
0.00 0.00 0.00 0.00 0.00 0.00 0.00 0.00 0.00 0.00 0.00 0.00 0.00 0.00 0.00 0.00 0.00 0.00 0.00 0.00 0.00 0.00 0.00 0.00 0.00 0.00 0.00 0.00 0.00 0.00 0.00 0.00 0.00 0.00 0.00 0.00 0.00 0.00 0.00 0.00 0.00 0.00
0.00 0.00 0.00 0.00 0.00 0.00 0.00 0.00 0.00 0.00 0.00 0.00 0.00 0.00 0.00 0.00 0.00 0.00 0.00 0.00 0.00 0.00 0.00 0.00 0.00 0.00 0.00 0.00 0.01 0.03 0.01 0.01 0.02 0.01 0.01 0.01 0.00 0.00 0.01 0.01 0.01 0.01
0.00 0.00 0.00 0.00 0.00 0.00 0.00 0.00 0.00 0.00 0.00 0.00 0.00 0.00 0.00 0.00 0.00 0.00 0.01 0.00 0.00 0.00 0.00 0.00 0.00 0.00 0.00 0.00 0.00 0.00 0.00 0.00 0.00 0.02 0.00 0.00 0.00 0.01 0.01 0.01 0.01 0.01
0.00 0.00 0.00 0.00 0.00 0.00 0.00 0.00 0.00 0.00 0.00 0.00 0.00 0.00 0.00 0.00 0.00 0.00 0.00 0.00 0.00 0.00 0.00 0.00 0.00 0.00 0.00 0.00 0.00 0.00 0.00 0.01 0.02 0.00 0.00 0.00 0.00 0.00 0.00 0.00 0.00 0.00
0.00 0.00 0.00 0.00 0.00 0.00 0.00 0.00 0.00 0.00 0.00 0.00 0.00 0.00 0.00 0.00 0.00 0.00 0.00 0.00 0.00 0.00 0.00 0.00 0.00 0.00 0.00 0.00 0.00 0.00 0.00 0.00 0.00 0.00 0.01 0.00 0.00 0.00 0.00 0.00 0.00 0.00
0.00 0.00 0.00 0.00 0.00 0.00 0.00 0.00 0.00 0.00 0.00 0.00 0.00 0.00 0.00 0.00 0.00 0.00 0.00 0.00 0.00 0.00 0.00 0.00 0.00 0.00 0.00 0.00 0.00 0.00 0.00 0.00 0.00 0.00 0.00 0.00 0.00 0.00 0.00 0.01 0.01 0.01
0.00 0.00 0.00 0.00 0.00 0.00 0.00 0.00 0.00 0.00 0.00 0.00 0.00 0.00 0.00 0.00 0.00 0.00 0.00 0.00 0.00 0.00 0.00 0.00 0.00 0.00 0.00 0.00 0.00 0.00 0.00 0.00 0.00 0.00 0.00 0.00 0.00 0.00 0.00 0.00 0.01 0.00
0.00 0.00 0.00 0.00 0.00 0.00 0.00 0.00 0.00 0.00 0.00 0.00 0.00 0.00 0.00 0.00 0.00 0.00 0.00 0.00 0.00 0.00 0.00 0.00 0.00 0.00 0.00 0.00 0.00 0.00 0.00 0.00 0.00 0.00 0.00 0.00 0.00 0.00 0.00 0.00 0.01 0.01
0.00 0.00 0.00 0.00 0.00 0.00 0.00 0.00 0.00 0.00 0.00 0.00 0.00 0.00 0.00 0.00 0.00 0.00 0.00 0.01 0.00 0.00 0.00 0.00 0.00 0.00 0.00 0.00 0.00 0.00 0.00 0.00 0.00 0.00 0.00 0.00 0.00 0.00 0.01 0.01 0.01 0.01
0.00 0.00 0.00 0.00 0.00 0.00 0.00 0.00 0.00 0.00 0.00 0.00 0.00 0.00 0.00 0.00 0.00 0.00 0.01 0.01 0.01 0.01 0.01 0.01 0.01 0.01 0.01 0.00 0.00 0.00 0.00 0.00 0.00 0.00 0.00 0.00 0.00 0.01 0.01 0.01 0.01 0.01
0.00 0.00 0.00 0.00 0.00 0.00 0.00 0.00 0.00 0.00 0.00 0.00 0.00 0.00 0.00 0.00 0.00 0.00 0.01 0.01 0.01 0.01 0.01 0.01 0.01 0.01 0.02 0.02 0.01 0.01 0.00 0.00 0.00 0.00 0.00 0.00 0.01 0.01 0.01 0.01 0.02 0.01
0.00 0.00 0.00 0.00 0.00 0.00 0.00 0.00 0.00 0.00 0.00 0.00 0.00 0.00 0.00 0.00 0.00 0.00 0.01 0.01 0.01 0.01 0.01 0.02 0.02 0.02 0.02 0.02 0.02 0.02 0.01 0.00 0.00 0.02 0.01 0.00 0.00 0.00 0.01 0.01 0.02 0.02
0.00 0.01 0.00 0.00 0.00 0.00 0.00 0.00 0.00 0.00 0.00 0.00 0.00 0.00 0.01 0.01 0.01 0.01 0.01 0.01 0.01 0.01 0.02 0.02 0.03 0.04 0.03 0.03 0.04 0.03 0.02 0.01 0.02 0.01 0.01 0.01 0.01 0.01 0.01 0.01 0.01 0.01
0.01 0.00 0.00 0.00 0.00 0.00 0.00 0.00 0.00 0.00 0.00 0.00 0.00 0.00 0.00 0.01 0.02 0.02 0.01 0.02 0.02 0.02 0.02 0.04 0.05 0.05 0.04 0.05 0.06 0.06 0.05 0.04 0.03 0.02 0.01 0.01 0.01 0.01 0.01 0.01 0.01 0.01
0.00 0.00 0.00 0.00 0.00 0.00 0.00 0.00 0.00 0.00 0.00 0.00 0.00 0.00 0.01 0.01 0.01 0.02 0.02 0.03 0.03 0.04 0.05 0.05 0.06 0.06 0.06 0.08 0.09 0.10 0.09 0.06 0.04 0.03 0.02 0.01 0.01 0.01 0.01 0.01 0.01 0.01
0.00 0.00 0.00 0.00 0.00 0.00 0.00 0.00 0.00 0.00 0.00 0.00 0.00 0.00 0.01 0.01 0.02 0.02 0.04 0.04 0.05 0.06 0.06 0.06 0.07 0.08 0.10 0.11 0.12 0.12 0.10 0.06 0.04 0.03 0.02 0.01 0.01 0.01 0.01 0.01 0.01 0.01
0.00 0.01 0.00 0.00 0.00 0.00 0.00 0.00 0.00 0.00 0.00 0.00 0.00 0.00 0.01 0.01 0.01 0.02 0.03 0.04 0.05 0.07 0.07 0.09 0.09 0.11 0.13 0.14 0.13 0.12 0.11 0.08 0.04 0.03 0.02 0.01 0.01 0.01 0.01 0.01 0.01 0.01
0.00 0.01 0.01 0.00 0.00 0.00 0.00 0.00 0.00 0.00 0.00 0.00 0.00 0.00 0.01 0.01 0.02 0.02 0.03 0.04 0.06 0.07 0.09 0.09 0.08 0.09 0.13 0.14 0.14 0.12 0.09 0.12 0.04 0.02 0.02 0.02 0.01 0.01 0.01 0.01 0.01 0.01
0.01 0.01 0.01 0.01 0.00 0.00 0.00 0.01 0.00 0.00 0.00 0.00 0.00 0.00 0.01 0.01 0.01 0.02 0.03 0.04 0.06 0.08 0.09 0.09 0.08 0.09 0.12 0.12 0.11 0.09 0.08 0.08 0.08 0.03 0.02 0.02 0.02 0.01 0.01 0.01 0.01 0.01
0.01 0.02 0.02 0.01 0.00 0.00 0.00 0.02 0.03 0.00 0.00 0.00 0.00 0.01 0.01 0.01 0.01 0.01 0.02 0.04 0.06 0.07 0.08 0.08 0.09 0.09 0.11 0.10 0.09 0.07 0.07 0.07 0.09 0.04 0.02 0.02 0.02 0.02 0.01 0.01 0.01 0.01
0.02 0.02 0.03 0.01 0.00 0.00 0.00 0.00 0.00 0.00 0.00 0.00 0.01 0.00 0.00 0.01 0.02 0.02 0.02 0.03 0.06 0.08 0.09 0.10 0.09 0.09 0.09 0.08 0.06 0.05 0.06 0.07 0.08 0.06 0.02 0.01 0.01 0.01 0.01 0.01 0.01 0.01
0.02 0.03 0.03 0.01 0.00 0.00 0.00 0.00 0.00 0.00 0.00 0.00 0.00 0.00 0.00 0.01 0.01 0.02 0.02 0.04 0.06 0.08 0.10 0.10 0.08 0.07 0.07 0.06 0.05 0.04 0.05 0.06 0.05 0.03 0.02 0.02 0.03 0.03 0.03 0.02 0.01 0.01
0.04 0.01 0.00 0.00 0.00 0.00 0.00 0.00 0.00 0.00 0.00 0.00 0.00 0.00 0.01 0.01 0.01 0.01 0.02 0.03 0.06 0.09 0.10 0.09 0.08 0.07 0.05 0.03 0.03 0.03 0.04 0.04 0.04 0.03 0.02 0.01 0.01 0.01 0.02 0.02 0.02 0.02
MSLP
1012.59 1012.39 1012.15 1011.83 1011.55 1011.31 1011.07 1010.87 1010.67 1010.47 1010.23 1010.15 1010.07 1009.79 1009.67 1009.35 1009.27 1009.27 1009.27 1009.39 1009.43 1009.35 1009.27 1009.35 1009.35 1009.31 1009.39 1009.67 1009.91 1010.15 1010.39 1010.55 1010.83 1010.99 1011.27 1011.55 1011.75 1011.95 1012.27 1012.67 1013.11 1013.43
1012.15 1011.99 1011.79 1011.55 1011.23 1010.91 1010.67 1010.43 1010.19 1010.07 1009.83 1009.71 1009.63 1009.47 1009.31 1009.19 1008.95 1008.91 1008.87 1008.91 1008.99 1009.03 1008.95 1008.91 1008.87 1008.83 1008.87 1009.03 1009.31 1009.67 1009.83 1010.03 1010.27 1010.55 1010.95 1011.27 1011.35 1011.71 1011.91 1012.19 1012.55 1013.03
1011.79 1011.63 1011.47 1011.27 1010.91 1010.55 1010.31 1010.03 1009.87 1009.67 1009.51 1009.27 1009.23 1009.15 1008.99 1008.83 1008.71 1008.59 1008.47 1008.47 1008.55 1008.63 1008.71 1008.63 1008.47 1008.39 1008.39 1008.43 1008.71 1009.03 1009.23 1009.31 1009.51 1009.87 1010.31 1010.59 1010.91 1011.27 1011.47 1011.99 1012.35 1012.67
1011.35 1011.19 1010.99 1010.75 1010.47 1010.19 1009.91 1009.71 1009.43 1009.23 1009.03 1008.87 1008.75 1008.67 1008.55 1008.35 1008.31 1008.19 1008.11 1008.07 1008.07 1008.07 1008.23 1008.27 1008.07 1008.03 1007.99 1007.99 1008.19 1008.39 1008.59 1008.79 1008.87 1009.31 1009.71 1010.07 1010.43 1010.75 1011.19 1011.67 1012.11 1012.51
1010.87 1010.67 1010.51 1010.27 1009.99 1009.75 1009.51 1009.31 1009.07 1008.83 1008.63 1008.35 1008.19 1008.15 1008.07 1007.95 1007.83 1007.75 1007.71 1007.63 1007.55 1007.55 1007.67 1007.79 1007.75 1007.59 1007.55 1007.59 1007.71 1007.95 1008.15 1008.35 1008.63 1008.99 1009.31 1009.63 1009.99 1010.39 1010.87 1011.39 1011.79 1012.19
1010.39 1010.23 1010.03 1009.83 1009.59 1009.39 1009.11 1008.83 1008.59 1008.43 1008.19 1008.03 1007.83 1007.63 1007.59 1007.47 1007.39 1007.27 1007.23 1007.19 1007.07 1007.07 1007.03 1007.15 1007.27 1007.15 1007.11 1007.11 1007.31 1007.39 1007.63 1007.91 1008.11 1008.59 1008.87 1009.15 1009.67 1010.19 1010.67 1010.99 1011.39 1011.83
1009.79 1009.63 1009.47 1009.31 1009.11 1008.91 1008.71 1008.35 1008.15 1007.99 1007.83 1007.67 1007.51 1007.39 1007.27 1007.11 1006.91 1006.75 1006.67 1006.63 1006.55 1006.55 1006.51 1006.59 1006.67 1006.71 1006.67 1006.71 1006.79 1006.91 1007.19 1007.43 1007.79 1008.11 1008.39 1008.79 1009.31 1009.91 1010.27 1010.63 1010.99 1011.43
1009.27 1009.11 1008.95 1008.75 1008.63 1008.39 1008.23 1007.95 1007.75 1007.59 1007.43 1007.27 1007.11 1006.83 1006.79 1006.59 1006.31 1006.19 1006.11 1006.03 1006.11 1006.03 1006.03 1005.99 1006.03 1006.07 1006.15 1006.23 1006.27 1006.47 1006.71 1007.03 1007.39 1007.67 1007.99 1008.31 1008.95 1009.43 1009.91 1010.43 1010.75 1011.11
1008.83 1008.63 1008.39 1008.27 1008.15 1007.91 1007.71 1007.43 1007.23 1007.03 1006.91 1006.79 1006.51 1006.27 1006.07 1005.99 1005.79 1005.59 1005.59 1005.59 1005.55 1005.51 1005.47 1005.43 1005.39 1005.47 1005.55 1005.67 1005.75 1005.95 1006.19 1006.51 1006.83 1007.15 1007.43 1007.75 1008.31 1008.83 1009.39 1009.99 1010.55 1010.83
1008.35 1008.11 1007.91 1007.71 1007.55 1007.35 1007.19 1006.99 1006.79 1006.59 1006.39 1006.23 1005.95 1005.75 1005.51 1005.31 1005.23 1005.15 1005.19 1005.15 1005.03 1004.99 1004.95 1004.83 1004.83 1004.87 1004.95 1005.11 1005.23 1005.43 1005.67 1005.95 1006.35 1006.67 1006.91 1007.19 1007.55 1008.11 1008.67 1009.27 1009.75 1010.35
1007.75 1007.59 1007.39 1007.19 1006.99 1006.79 1006.63 1006.55 1006.39 1006.19 1005.99 1005.83 1005.63 1005.35 1005.07 1004.83 1004.67 1004.59 1004.59 1004.55 1004.51 1004.39 1004.39 1004.31 1004.27 1004.31 1004.47 1004.59 1004.75 1004.87 1005.03 1005.35 1005.83 1006.23 1006.51 1006.71 1007.03 1007.47 1007.99 1008.47 1009.07 1009.55
1007.35 1007.15 1006.99 1006.79 1006.63 1006.47 1006.31 1006.15 1005.95 1005.75 1005.55 1005.31 1005.15 1004.91 1004.63 1004.39 1004.23 1004.07 1004.07 1003.95 1003.87 1003.83 1003.79 1003.75 1003.67 1003.75 1003.91 1004.07 1004.27 1004.47 1004.63 1004.87 1005.27 1005.71 1006.03 1006.35 1006.67 1007.07 1007.55 1007.95 1008.39 1008.95
1006.95 1006.67 1006.47 1006.27 1006.11 1005.95 1005.79 1005.63 1005.43 1005.23 1005.07 1004.87 1004.67 1004.47 1004.23 1003.95 1003.75 1003.63 1003.43 1003.43 1003.31 1003.27 1003.27 1003.19 1003.19 1003.23 1003.35 1003.55 1003.83 1004.11 1004.31 1004.55 1004.83 1005.23 1005.63 1006.03 1006.39 1006.75 1007.19 1007.59 1008.03 1008.51
1006.51 1006.23 1005.99 1005.79 1005.63 1005.43 1005.19 1004.99 1004.79 1004.59 1004.43 1004.27 1004.15 1003.91 1003.67 1003.43 1003.23 1003.07 1002.87 1002.83 1002.71 1002.71 1002.63 1002.67 1002.75 1002.79 1002.83 1003.03 1003.35 1003.67 1003.87 1004.15 1004.35 1004.71 1005.19 1005.67 1006.15 1006.63 1007.03 1007.39 1007.79 1008.19
1006.07 1005.79 1005.59 1005.35 1005.15 1004.87 1004.59 1004.39 1004.15 1003.95 1003.79 1003.63 1003.47 1003.23 1002.99 1002.75 1002.63 1002.55 1002.47 1002.35 1002.19 1002.15 1002.11 1002.11 1002.19 1002.19 1002.23 1002.47 1002.83 1003.19 1003.43 1003.63 1003.91 1004.27 1004.71 1005.27 1005.83 1006.31 1006.71 1007.15 1007.59 1007.99
1005.75 1005.47 1005.19 1004.87 1004.63 1004.35 1004.11 1003.91 1003.67 1003.43 1003.23 1003.07 1002.83 1002.63 1002.43 1002.27 1002.19 1002.07 1001.99 1001.83 1001.67 1001.51 1001.51 1001.55 1001.55 1001.55 1001.55 1001.75 1002.07 1002.55 1002.95 1003.19 1003.55 1003.87 1004.23 1004.79 1005.43 1005.91 1006.39 1006.87 1007.31 1007.75
1005.11 1004.87 1004.63 1004.35 1003.95 1003.75 1003.63 1003.43 1003.19 1002.95 1002.75 1002.47 1002.31 1002.11 1001.95 1001.83 1001.75 1001.59 1001.43 1001.31 1001.19 1001.07 1000.95 1000.95 1000.99 1000.95 1000.99 1001.15 1001.43 1001.87 1002.43 1002.75 1003.03 1003.43 1003.83 1004.31 1004.79 1005.35 1005.95 1006.47 1007.03 1007.51
1004.51 1004.19 1003.99 1003.67 1003.35 1003.19 1003.07 1002.87 1002.67 1002.47 1002.27 1002.03 1001.87 1001.67 1001.47 1001.39 1001.27 1001.07 1000.87 1000.75 1000.63 1000.59 1000.51 1000.39 1000.39 1000.43 1000.51 1000.71 1000.95 1001.23 1001.71 1002.11 1002.51 1002.95 1003.47 1003.91 1004.35 1004.79 1005.43 1006.03 1006.59 1007.15
1003.87 1003.55 1003.27 1003.03 1002.79 1002.63 1002.47 1002.27 1002.11 1001.95 1001.79 1001.63 1001.43 1001.27 1001.15 1000.99 1000.71 1000.51 1000.23 1000.11 1000.07 1000.03 999.95 999.95 999.99 999.99 1000.11 1000.23 1000.43 1000.63 1001.03 1001.59 1001.99 1002.39 1002.91 1003.43 1003.95 1004.43 1004.99 1005.55 1006.15 1006.71
1003.27 1002.95 1002.71 1002.43 1002.19 1001.99 1001.87 1001.75 1001.63 1001.43 1001.27 1001.15 1000.99 1000.87 1000.79 1000.51 1000.19 999.91 999.71 999.67 999.59 999.51 999.43 999.43 999.55 999.67 999.75 999.87 999.95 1000.15 1000.43 1000.99 1001.51 1001.95 1002.43 1002.95 1003.51 1004.03 1004.51 1005.07 1005.59 1006.19
1002.75 1002.43 1002.19 1001.91 1001.63 1001.47 1001.35 1001.27 1001.11 1000.95 1000.79 1000.67 1000.59 1000.51 1000.35 1000.03 999.63 999.43 999.27 999.15 999.03 998.99 998.99 998.99 999.11 999.23 999.35 999.43 999.55 999.71 999.91 1000.39 1001.19 1001.67 1002.23 1002.71 1003.19 1003.67 1004.11 1004.59 1005.11 1005.63
1002.39 1001.99 1001.67 1001.43 1001.19 1001.03 1000.95 1000.75 1000.67 1000.55 1000.43 1000.27 1000.15 1000.03 999.79 999.51 999.19 999.03 998.87 998.67 998.51 998.59 998.67 998.67 998.71 998.75 998.87 999.03 999.15 999.27 999.55 999.91 1000.87 1001.43 1001.99 1002.51 1002.99 1003.47 1003.95 1004.35 1004.79 1005.27
1002.07 1001.63 1001.23 1001.03 1000.83 1000.71 1000.59 1000.39 1000.27 1000.07 999.99 999.87 999.75 999.63 999.43 999.15 998.75 998.43 998.23 998.19 998.15 998.27 998.35 998.31 998.35 998.39 998.47 998.59 998.79 998.91 999.23 999.59 1000.55 1001.15 1001.75 1002.23 1002.75 1003.19 1003.63 1004.07 1004.51 1005.03
1001.83 1001.23 1000.83 1000.67 1000.47 1000.43 1000.27 1000.03 999.83 999.63 999.59 999.55 999.43 999.19 998.91 998.59 998.23 997.95 997.75 997.79 997.87 997.91 997.95 998.03 997.99 998.07 998.15 998.27 998.43 998.63 998.87 999.43 1000.27 1000.79 1001.51 1001.91 1002.47 1002.95 1003.35 1003.79 1004.19 1004.59
1001.27 1000.67 1000.55 1000.43 1000.23 1000.07 999.95 999.71 999.43 999.27 999.15 999.07 998.87 998.63 998.31 998.03 997.83 997.59 997.39 997.43 997.55 997.59 997.59 997.75 997.79 997.87 997.95 998.03 998.15 998.35 998.63 999.27 999.99 1000.51 1001.27 1001.75 1002.23 1002.87 1003.35 1003.71 1004.11 1004.55
1001.31 1000.87 1000.47 1000.27 1000.03 999.75 999.55 999.31 999.03 998.87 998.67 998.47 998.27 998.07 997.83 997.59 997.39 997.23 997.15 997.15 997.27 997.43 997.47 997.47 997.63 997.75 997.87 997.87 997.95 998.11 998.35 999.07 999.67 1000.15 1000.79 1001.43 1001.99 1002.55 1003.31 1003.83 1004.19 1004.63
Thickness
5304 5306 5309 5314 5318 5321 5325 5328 5331 5334 5337 5338 5340 5343 5346 5347 5349 5349 5351 5352 5352 5354 5356 5356 5358 5360 5360 5360 5357 5356 5356 5355 5354 5353 5351 5351 5352 5351 5350 5349 5346 5343
5294 5296 5299 5303 5307 5311 5314 5318 5321 5325 5328 5329 5330 5333 5336 5338 5339 5341 5342 5344 5344 5345 5347 5348 5350 5353 5354 5355 5353 5352 5351 5351 5351 5348 5346 5345 5344 5344 5344 5342 5341 5338
5283 5286 5289 5292 5297 5302 5305 5308 5311 5315 5317 5320 5321 5323 5326 5328 5330 5332 5334 5335 5336 5337 5338 5340 5343 5346 5348 5350 5349 5348 5348 5348 5349 5346 5342 5341 5340 5339 5338 5336 5334 5333
5273 5276 5279 5283 5289 5293 5296 5299 5302 5305 5307 5311 5314 5314 5316 5318 5321 5323 5325 5327 5328 5330 5330 5332 5336 5339 5341 5343 5343 5344 5345 5344 5345 5342 5339 5338 5336 5334 5333 5329 5327 5326
5266 5268 5271 5275 5279 5283 5287 5291 5294 5296 5298 5303 5306 5307 5309 5311 5312 5315 5317 5318 5320 5322 5323 5325 5328 5331 5334 5335 5336 5338 5339 5338 5338 5336 5334 5333 5332 5330 5327 5324 5323 5321
5263 5264 5265 5268 5271 5274 5278 5282 5285 5287 5290 5293 5297 5299 5300 5302 5305 5307 5309 5311 5313 5315 5317 5318 5320 5323 5326 5327 5328 5331 5332 5333 5331 5330 5330 5329 5326 5324 5322 5320 5319 5317
5261 5262 5262 5263 5265 5266 5270 5273 5276 5279 5281 5284 5287 5290 5291 5292 5297 5300 5301 5303 5306 5307 5310 5311 5313 5316 5318 5320 5321 5324 5326 5326 5325 5324 5324 5323 5320 5318 5316 5315 5315 5312
5259 5259 5260 5259 5260 5261 5263 5267 5269 5271 5274 5276 5280 5283 5283 5285 5289 5292 5294 5296 5298 5301 5302 5303 5305 5308 5310 5312 5314 5317 5319 5319 5319 5318 5318 5317 5315 5313 5312 5310 5308 5307
5256 5257 5257 5256 5257 5258 5260 5262 5264 5266 5267 5268 5272 5275 5276 5279 5281 5284 5286 5287 5289 5293 5294 5295 5298 5300 5302 5305 5307 5310 5312 5313 5313 5313 5312 5312 5311 5309 5307 5305 5302 5302
5254 5254 5255 5255 5255 5256 5257 5257 5258 5260 5260 5261 5263 5266 5268 5271 5272 5274 5275 5277 5279 5283 5285 5286 5289 5292 5295 5297 5300 5303 5305 5307 5307 5306 5307 5308 5308 5306 5304 5301 5299 5298
5253 5253 5253 5253 5254 5253 5253 5253 5253 5253 5253 5254 5254 5256 5258 5260 5261 5262 5263 5264 5268 5271 5274 5277 5280 5283 5286 5289 5292 5295 5298 5300 5300 5300 5300 5302 5302 5301 5300 5299 5297 5295
5250 5251 5250 5251 5250 5250 5250 5249 5248 5249 5248 5248 5248 5248 5250 5251 5251 5252 5252 5253 5256 5259 5261 5266 5270 5273 5276 5280 5283 5286 5290 5293 5294 5293 5293 5295 5296 5295 5294 5294 5293 5292
5246 5247 5247 5247 5247 5246 5246 5245 5245 5244 5243 5243 5242 5242 5243 5243 5243 5243 5244 5244 5246 5248 5250 5253 5257 5262 5266 5271 5274 5277 5281 5285 5287 5287 5287 5288 5288 5288 5288 5288 5288 5287
5243 5244 5244 5244 5243 5243 5243 5242 5241 5240 5239 5238 5237 5237 5237 5237 5236 5236 5237 5238 5238 5239 5241 5243 5246 5251 5257 5261 5264 5267 5272 5276 5280 5281 5281 5281 5281 5281 5281 5281 5281 5281
5240 5241 5241 5241 5240 5240 5239 5239 5238 5236 5235 5234 5232 5231 5231 5230 5230 5230 5230 5231 5231 5232 5234 5235 5238 5242 5248 5252 5255 5259 5264 5269 5271 5273 5274 5275 5275 5274 5275 5275 5275 5275
5237 5237 5237 5237 5237 5237 5235 5234 5233 5232 5230 5229 5228 5226 5226 5224 5224 5224 5224 5225 5226 5227 5228 5229 5232 5235 5240 5245 5249 5252 5255 5260 5263 5265 5268 5269 5270 5270 5270 5269 5269 5268
5236 5235 5235 5235 5235 5234 5231 5229 5229 5227 5225 5225 5223 5222 5221 5220 5220 5220 5221 5221 5222 5223 5224 5225 5227 5230 5233 5237 5243 5246 5248 5252 5256 5258 5261 5263 5265 5266 5266 5265 5264 5263
5235 5235 5233 5234 5233 5230 5228 5226 5224 5222 5221 5220 5218 5218 5217 5217 5218 5218 5219 5220 5220 5221 5222 5222 5224 5226 5228 5232 5237 5242 5245 5248 5250 5253 5254 5258 5261 5262 5262 5260 5259 5257
5234 5233 5232 5232 5230 5227 5225 5223 5220 5218 5216 5215 5215 5214 5214 5215 5216 5218 5219 5220 5220 5220 5221 5221 5222 5223 5225 5230 5235 5240 5244 5246 5248 5249 5251 5254 5257 5258 5257 5256 5255 5253
5231 5231 5230 5229 5227 5225 5222 5219 5217 5215 5213 5211 5212 5212 5212 5214 5216 5218 5219 5220 5220 5221 5221 5221 5221 5222 5225 5229 5234 5239 5243 5245 5246 5247 5248 5250 5253 5254 5254 5254 5252 5250
5229 5228 5228 5226 5225 5223 5219 5216 5213 5211 5210 5210 5209 5210 5211 5213 5216 5217 5218 5219 5220 5221 5221 5222 5223 5224 5227 5230 5234 5239 5243 5245 5244 5243 5244 5246 5248 5250 5251 5250 5249 5248
5225 5226 5225 5224 5221 5219 5216 5213 5210 5208 5208 5208 5208 5210 5211 5212 5215 5216 5217 5220 5221 5221 5221 5222 5225 5226 5228 5232 5235 5239 5243 5244 5242 5240 5241 5243 5244 5245 5246 5246 5246 5245
5221 5222 5223 5221 5218 5215 5212 5210 5208 5206 5206 5207 5207 5209 5210 5212 5214 5216 5218 5220 5221 5221 5221 5223 5226 5228 5230 5233 5236 5239 5243 5242 5240 5238 5239 5240 5241 5241 5242 5242 5242 5241
5218 5220 5220 5218 5215 5212 5209 5207 5206 5206 5205 5205 5206 5208 5209 5211 5214 5216 5219 5220 5220 5221 5222 5223 5226 5229 5232 5234 5237 5240 5242 5240 5239 5238 5237 5238 5238 5238 5239 5239 5239 5238
5216 5218 5216 5213 5211 5208 5206 5205 5206 5206 5206 5206 5206 5208 5210 5212 5214 5216 5219 5220 5220 5221 5223 5225 5227 5229 5232 5235 5237 5240 5241 5239 5239 5238 5235 5235 5236 5235 5235 5235 5235 5234
5212 5213 5211 5209 5208 5206 5205 5206 5206 5206 5207 5207 5208 5209 5210 5212 5213 5216 5219 5220 5221 5222 5223 5225 5226 5228 5231 5235 5237 5240 5241 5238 5238 5238 5235 5233 5233 5232 5231 5229 5229 5228